Location: Bo?a Wola
(50.4192°N, 19.7966°E)
Time: 12:21:50
(UTC+00:00)

Cosmos 494 Rocket - Pass Details

Date: 15 June 2024
Orbit: 739 x 769 km, 74.1° (Epoch: 15 July)

Event Time Altitude Azimuth Distance (km) Brightness Sun altitude
Rises 00:39:33 0° 337° (NNW) 3,232 7.8 -11.8°
Reaches altitude 10° 00:41:57 10° 340° (NNW) 2,306 7.1 -11.6°
Maximum altitude 00:47:10 67° 63° (ENE) 832 4.4 -11.2°
Drops below altitude 10° 00:52:23 10° 146° (SSE) 2,304 6.2 -10.8°
Sets 00:54:46 0° 149° (SSE) 3,228 7.0 -10.6°
